[[{"header":{"parameterUnit":"m.s-1","parameterCategory":1,"la1":30.2991,"la2":30.254,"lo1":-89.0895,"lo2":-89.0444,"dy":0.0017,"dx":0.0017,"nx":28,"ny":28,"refTime":"2025-12-11T03:00:00:Z","depth":0,"parameterNumber":2,"parameterNumberName":"U-component_of_WINDS"},"data":[0,0,0,0,0,0,0,0,0,0,0,0,0,0,0,0,0,0,0,0,0,0,0,0,0,0,0,0,0,0,0,0,0,0,0,0,0,0,0,0,0,0,0,0,0,0,0,0,0,0,0,0,0,0,0,0,0,0,-3.6872,-3.6872,0,-3.6887,-3.6887,-3.6887,-3.6793,-3.679,-3.6788,-3.6785,-3.68,-3.6803,-3.6806,0,0,0,0,0,0,0,0,0,0,0,0,0,-3.6763,-3.6766,-3.6872,-3.6872,-3.6872,-3.6887,-3.6887,-3.6887,-3.6793,-3.679,-3.6787,-3.6784,-3.6799,-3.6803,-3.6806,0,0,0,0,0,0,0,0,0,0,0,0,0,-3.6797,-3.6766,-3.6872,-3.6827,-3.6824,-3.6886,-3.6887,-3.6887,-3.6794,-3.679,-3.6786,-3.6782,-3.6798,-3.6802,-3.6806,-3.6913,0,0,-3.682,-3.6821,0,0,0,0,0,0,0,0,-3.6796,-3.6801,-3.6834,-3.6831,-3.6826,-3.6834,-3.6854,-3.6896,-3.6795,-3.6805,-3.6785,-3.6781,-3.6815,-3.6817,-3.6829,-3.6913,-3.6914,-3.682,-3.6823,-3.6824,-3.6826,0,0,0,0,0,0,0,-3.6793,-3.68,-3.6878,-3.6834,-3.683,-3.6807,-3.6807,-3.6861,-3.6832,-3.6804,-3.6797,-3.68,-3.6812,-3.6825,-3.6828,-3.6914,-3.682,-3.6824,-3.6826,-3.6828,-3.7087,-3.7091,0,0,0,0,0,0,-3.6797,-3.6799,-3.6877,-3.6878,-3.6801,-3.6812,-3.6812,-3.6836,-3.6831,-3.6827,-3.6804,-3.6796,-3.6819,-3.6823,-3.6829,-3.6953,-3.6824,-3.6828,-3.6831,-3.7083,-3.7088,-3.7093,0,0,0,0,0,0,-3.6795,-3.6805,-3.6877,-3.6837,-3.6844,-3.6818,-3.6845,-3.6838,-3.6851,-3.6831,-3.6825,-3.6823,-3.6816,-3.6822,-3.6893,-3.6952,-3.683,-3.6834,-3.7078,-3.7084,-3.709,-3.7203,0,0,0,0,0,0,-3.6792,-3.6805,-3.6845,-3.6838,-3.6847,-3.6941,-3.6848,-3.6841,-3.6859,-3.6848,-3.6847,-3.6843,-3.6814,-3.6887,-3.6897,-3.6956,-3.6838,-3.7072,-3.7081,-3.7088,-3.7194,-3.7213,-3.7229,0,0,0,0,0,-3.6789,-3.6876,-3.6847,-3.6857,-3.6896,-3.6945,-3.6949,-3.6914,-3.6864,-3.6904,-3.6891,-3.6843,-3.6944,-3.6895,-3.6905,-3.6967,-3.7068,-3.7078,-3.7088,-3.7186,-3.7209,-3.7229,0,0,0,0,0,0,-3.689,-3.6874,-3.6842,-3.693,-3.694,-3.6929,-3.6978,-3.6939,-3.6963,-3.6952,-3.6907,-3.6908,-3.6986,-3.6983,-3.6928,-3.7069,-3.6997,-3.701,-3.7069,-3.709,-3.7107,-3.7107,-3.6841,0,0,0,0,0,-3.6923,-3.6964,-3.6947,-3.7026,-3.7033,-3.7005,-3.7025,-3.6997,-3.7004,-3.7008,-3.7,-3.7009,-3.7043,-3.7066,-3.7096,-3.7193,-3.7191,-3.724,-3.7258,-3.7272,-3.7284,-3.7335,-3.7357,-3.7124,-3.7124,-3.7124,0,0,-3.6991,-3.6987,-3.7015,-3.7047,-3.705,-3.7094,-3.7009,-3.7058,-3.709,-3.7015,-3.7081,-3.7076,-3.7083,-3.7167,-3.7204,-3.7167,-3.7347,-3.7284,-3.7296,-3.73,-3.7347,-3.7369,-3.7389,-3.7131,-3.713,-3.7129,0,0,-3.7137,-3.7138,-3.7204,-3.721,-3.7217,-3.7198,-3.7214,-3.7209,-3.7203,-3.7268,-3.7213,-3.725,-3.7309,-3.7316,-3.7328,-3.7477,-3.7434,-3.7488,-3.7579,-3.763,-3.7648,-3.7664,-3.7718,-3.7738,-3.7499,-3.7499,-3.7499,0,-3.7221,-3.7283,-3.7243,-3.7296,-3.7312,-3.7246,-3.7313,-3.732,-3.7337,-3.7349,-3.7308,-3.7381,-3.7381,-3.7466,-3.7503,-3.7514,-3.7531,-3.7488,-3.7649,-3.7664,-3.7679,-3.773,-3.775,-3.7506,-3.7505,-3.7504,-3.7504,0,-3.7386,-3.7431,-3.7483,-3.7502,-3.7523,-3.7583,-3.7551,-3.7578,-3.7548,-3.7533,-3.7601,-3.7598,-3.7627,-3.7645,-3.7616,-3.7727,-3.7704,-3.7656,-3.7583,-3.7708,-3.7755,-3.7774,-3.7515,-3.7513,-3.7511,-3.7509,0,0,-3.7598,-3.7593,-3.7613,-3.762,-3.7623,-3.7656,-3.7713,-3.7741,-3.7765,-3.7778,-3.7825,-3.7876,-3.7832,-3.7846,-3.7817,-3.7861,-3.798,-3.7808,-3.7807,-3.7841,-3.8103,-3.8139,-3.8163,-3.7951,-3.7955,-3.7957,-3.8102,0,-3.7741,-3.7838,-3.7804,-3.7903,-3.7944,-3.7882,-3.7931,-3.7938,-3.7926,-3.7959,-3.7945,-3.7982,-3.7921,-3.7929,-3.797,-3.7957,-3.8032,-3.7946,-3.7995,-3.7997,-3.7996,-3.8187,-3.8226,-3.8363,-3.812,-3.8124,-3.8126,0,-3.7922,-3.7943,-3.8047,-3.8043,-3.8058,-3.8104,-3.8126,-3.8158,-3.8165,-3.8153,-3.8168,-3.8129,-3.8185,-3.8111,-3.8187,-3.8129,-3.8146,-3.8143,-3.8147,-3.8152,-3.807,-3.8197,-3.8406,-3.8427,-3.8154,-3.8152,-3.815,0,-3.8067,-3.8121,-3.819,-3.8198,-3.8195,-3.8228,-3.8229,-3.8231,-3.825,-3.827,-3.8282,-3.8308,-3.8323,-3.8344,-3.8313,-3.8262,-3.8394,-3.8317,-3.8386,-3.8387,-3.8417,-3.8416,-3.8633,-3.8427,-3.8427,-3.8427,-3.8426,0,-3.8232,-3.8298,-3.8256,-3.8299,-3.8371,-3.833,-3.8402,-3.8395,-3.8398,-3.8438,-3.8385,-3.8424,-3.8381,-3.8416,-3.8392,-3.8459,-3.8466,-3.8458,-3.8451,-3.8463,-3.8465,-3.8475,-3.8465,-3.8432,-3.8431,-3.843,-3.8429,0,-3.8407,-3.8381,-3.8453,-3.8444,-3.8443,-3.8497,-3.8488,-3.8527,-3.8511,-3.8563,-3.8572,-3.8547,-3.8585,-3.8556,-3.8594,-3.8578,-3.8666,-3.8646,-3.8665,-3.8659,-3.873,-3.8724,-3.8962,-3.8991,-3.8766,-3.8768,-3.877,0,-3.8515,-3.8564,-3.856,-3.8584,-3.8587,-3.8625,-3.8644,-3.8606,-3.8628,-3.8639,-3.8677,-3.8711,-3.8736,-3.8799,-3.8784,-3.8813,-3.8793,-3.8874,-3.8797,-3.8808,-3.8795,-3.8793,-3.8798,-3.889,-3.8893,-3.8895,-3.8897,0,-3.8709,-3.8693,-3.8723,-3.8749,-3.8774,-3.8792,-3.8806,-3.8828,-3.8789,-3.8816,-3.8855,-3.8874,-3.8913,-3.8947,-3.897,-3.8969,-3.8928,-3.8921,-3.8939,-3.8952,-3.8962,-3.8959,-3.8709,-3.8916,-3.8914,-3.8913,-3.8912,-3.8911,-3.8854,-3.8895,-3.8899,-3.8934,-3.894,-3.8955,-3.8991,-3.898,-3.9011,-3.9039,-3.9014,-3.9061,-3.9066,-3.9092,-3.9097,-3.9133,-3.9099,-3.9125,-3.9131,-3.9138,-3.9149,-3.8955,-3.9137,-3.9136,-3.9136,-3.9135,-3.9135,0,-3.9045,-3.9045,-3.9078,-3.9099,-3.9127,-3.9084,-3.9097,-3.9124,-3.9165,-3.9173,-3.9199,-3.9243,-3.9276,-3.9263,-3.9292,-3.9323,-3.9305,-3.9332,-3.933,-3.9331,-3.9177,-3.9159,-3.9347,-3.9347,-3.9347,-3.9347,-3.9347,-3.9347,-3.9149,-3.9217,-3.9202,-3.9272,-3.9271,-3.9316,-3.9327,-3.934,-3.9347,-3.9399,-3.9426,-3.9417,-3.9417,-3.9445,-3.9474,-3.9469,-3.9483,-3.9518,-3.9506,-3.9363,-3.9342,-3.9322,-3.9305,-3.9521,-3.9521,-3.9658,-3.9659,-3.966]},{"header":{"parameterUnit":"m.s-1","parameterCategory":1,"la1":30.2991,"la2":30.254,"lo1":-89.0895,"lo2":-89.0444,"dy":0.0017,"dx":0.0017,"nx":28,"ny":28,"refTime":"2025-12-11T03:00:00:Z","depth":0,"parameterNumber":3,"parameterNumberName":"V-component_of_WINDS"},"data":[0,0,0,0,0,0,0,0,0,0,0,0,0,0,0,0,0,0,0,0,0,0,0,0,0,0,0,0,0,0,0,0,0,0,0,0,0,0,0,0,0,0,0,0,0,0,0,0,0,0,0,0,0,0,0,0,0,0,-3.0981,-3.0982,0,-3.1018,-3.1018,-3.1019,-3.0973,-3.0971,-3.097,-3.0968,-3.1004,-3.1007,-3.1009,0,0,0,0,0,0,0,0,0,0,0,0,0,-3.0869,-3.0871,-3.0981,-3.0982,-3.0982,-3.1018,-3.1018,-3.1019,-3.0973,-3.0971,-3.0969,-3.0967,-3.1003,-3.1006,-3.1009,0,0,0,0,0,0,0,0,0,0,0,0,0,-3.0913,-3.0872,-3.0981,-3.0964,-3.0962,-3.1018,-3.1018,-3.1019,-3.0974,-3.0971,-3.0969,-3.0966,-3.1002,-3.1006,-3.101,-3.1084,0,0,-3.1021,-3.1023,0,0,0,0,0,0,0,0,-3.091,-3.0917,-3.0966,-3.0965,-3.0964,-3.0988,-3.0992,-3.1041,-3.0974,-3.0969,-3.0968,-3.0965,-3.1001,-3.1005,-3.1017,-3.1085,-3.1087,-3.1022,-3.1024,-3.1026,-3.1027,0,0,0,0,0,0,0,-3.0907,-3.0915,-3.0996,-3.0966,-3.0965,-3.0953,-3.0957,-3.1001,-3.0999,-3.097,-3.0966,-3.0971,-3.1,-3.1013,-3.1018,-3.1087,-3.1022,-3.1025,-3.1027,-3.1029,-3.1218,-3.122,0,0,0,0,0,0,-3.0907,-3.0913,-3.0994,-3.0997,-3.093,-3.0957,-3.0961,-3.0983,-3.0998,-3.0998,-3.0974,-3.0969,-3.1008,-3.1013,-3.1019,-3.1106,-3.1026,-3.1029,-3.1031,-3.1215,-3.1218,-3.1221,0,0,0,0,0,0,-3.0904,-3.0914,-3.0993,-3.0954,-3.0963,-3.0962,-3.0987,-3.0985,-3.0999,-3.1001,-3.1,-3.0988,-3.1006,-3.1013,-3.1068,-3.1107,-3.1031,-3.1034,-3.1212,-3.1216,-3.122,-3.1282,0,0,0,0,0,0,-3.0901,-3.0914,-3.0942,-3.0955,-3.0965,-3.1043,-3.0989,-3.0987,-3.1005,-3.1,-3.1015,-3.1015,-3.1005,-3.1062,-3.1072,-3.1111,-3.1037,-3.1208,-3.1214,-3.1218,-3.1276,-3.1288,-3.1297,0,0,0,0,0,-3.0897,-3.0958,-3.0944,-3.0954,-3.1001,-3.1045,-3.1051,-3.1039,-3.1009,-3.1037,-3.1039,-3.1014,-3.1101,-3.1068,-3.1078,-3.1119,-3.1206,-3.1212,-3.1218,-3.1272,-3.1285,-3.1297,0,0,0,0,0,0,-3.095,-3.096,-3.0944,-3.1011,-3.1028,-3.1037,-3.1073,-3.1054,-3.1079,-3.1073,-3.1056,-3.106,-3.1118,-3.1124,-3.1088,-3.1191,-3.1148,-3.1157,-3.1186,-3.1199,-3.1209,-3.1207,-3.104,0,0,0,0,0,-3.0969,-3.1005,-3.1011,-3.1069,-3.1078,-3.1074,-3.1093,-3.1082,-3.1098,-3.1105,-3.111,-3.1127,-3.1157,-3.1178,-3.1206,-3.1276,-3.1279,-3.1309,-3.132,-3.1328,-3.1336,-3.1373,-3.1387,-3.1241,-3.1241,-3.1241,0,0,-3.101,-3.1019,-3.1043,-3.108,-3.1091,-3.1128,-3.108,-3.1121,-3.1147,-3.1111,-3.1163,-3.1167,-3.1184,-3.1247,-3.1275,-3.1253,-3.1376,-3.1336,-3.1343,-3.1346,-3.1381,-3.1394,-3.1407,-3.1246,-3.1245,-3.1244,0,0,-3.1102,-3.1113,-3.1163,-3.1175,-3.1194,-3.119,-3.1202,-3.1215,-3.1216,-3.1268,-3.1242,-3.1272,-3.1326,-3.1339,-3.1353,-3.1449,-3.1427,-3.1459,-3.1513,-3.155,-3.1561,-3.1571,-3.1606,-3.1619,-3.1466,-3.1466,-3.1466,0,-3.115,-3.1205,-3.1191,-3.1233,-3.125,-3.1219,-3.1269,-3.1281,-3.1308,-3.132,-3.1295,-3.1362,-3.1371,-3.1436,-3.1459,-3.1471,-3.1484,-3.1457,-3.1561,-3.1571,-3.158,-3.1613,-3.1626,-3.147,-3.147,-3.1469,-3.1469,0,-3.1262,-3.13,-3.1338,-3.1365,-3.1386,-3.1432,-3.1424,-3.1447,-3.1434,-3.1433,-3.1486,-3.1496,-3.1526,-3.154,-3.1528,-3.1604,-3.159,-3.1563,-3.152,-3.1598,-3.1628,-3.1641,-3.1475,-3.1474,-3.1473,-3.1472,0,0,-3.139,-3.1408,-3.1423,-3.1434,-3.1452,-3.148,-3.1524,-3.1554,-3.1574,-3.1592,-3.1629,-3.1674,-3.165,-3.1665,-3.1654,-3.1686,-3.1762,-3.1655,-3.1655,-3.1675,-3.1845,-3.1866,-3.1881,-3.1747,-3.1749,-3.1751,-3.1844,0,-3.1483,-3.156,-3.1549,-3.1623,-3.1657,-3.1628,-3.1666,-3.168,-3.168,-3.1709,-3.1708,-3.1741,-3.1706,-3.1715,-3.1745,-3.1746,-3.1796,-3.1739,-3.178,-3.1782,-3.1778,-3.1897,-3.1918,-3.2006,-3.1856,-3.1858,-3.1859,0,-3.1602,-3.1626,-3.1704,-3.1715,-3.1729,-3.1764,-3.179,-3.1818,-3.1833,-3.1831,-3.1848,-3.1831,-3.1874,-3.1829,-3.1888,-3.185,-3.1865,-3.1868,-3.1871,-3.1875,-3.1826,-3.1904,-3.2033,-3.2047,-3.1878,-3.1876,-3.1875,0,-3.1688,-3.1739,-3.1792,-3.1803,-3.1818,-3.1843,-3.185,-3.1863,-3.1881,-3.1903,-3.1915,-3.1942,-3.1956,-3.1977,-3.1967,-3.1936,-3.2028,-3.1983,-3.2027,-3.2028,-3.2049,-3.2048,-3.2183,-3.2058,-3.2058,-3.2057,-3.2057,0,-3.1793,-3.1842,-3.1831,-3.1864,-3.1918,-3.1903,-3.1956,-3.196,-3.1971,-3.2003,-3.1978,-3.2009,-3.1994,-3.2023,-3.2015,-3.2066,-3.2072,-3.2071,-3.2069,-3.2074,-3.2074,-3.2085,-3.2079,-3.2061,-3.206,-3.2059,-3.2059,0,-3.1899,-3.1894,-3.195,-3.1959,-3.1962,-3.2001,-3.2009,-3.2039,-3.2037,-3.2078,-3.2087,-3.2083,-3.2116,-3.2108,-3.2144,-3.2139,-3.2202,-3.2191,-3.2197,-3.2195,-3.224,-3.2236,-3.2388,-3.2407,-3.2269,-3.227,-3.2271,0,-3.1967,-3.2004,-3.2017,-3.2038,-3.2047,-3.208,-3.2098,-3.2085,-3.2105,-3.2125,-3.2152,-3.2183,-3.2208,-3.2262,-3.2262,-3.2289,-3.228,-3.2331,-3.2284,-3.2288,-3.2281,-3.2279,-3.2283,-3.234,-3.2342,-3.2343,-3.2344,0,-3.2089,-3.2084,-3.2112,-3.214,-3.2163,-3.2183,-3.2202,-3.2219,-3.2207,-3.2231,-3.2265,-3.2284,-3.232,-3.2351,-3.2376,-3.2383,-3.2362,-3.2359,-3.2371,-3.2377,-3.2379,-3.2379,-3.2224,-3.2356,-3.2355,-3.2354,-3.2353,-3.2353,-3.2178,-3.221,-3.2224,-3.2256,-3.2268,-3.2286,-3.2314,-3.2316,-3.2344,-3.2373,-3.2363,-3.2402,-3.2415,-3.2447,-3.2456,-3.2485,-3.2466,-3.2483,-3.2488,-3.2492,-3.2498,-3.2374,-3.249,-3.2489,-3.2489,-3.2489,-3.2489,0,-3.2299,-3.2306,-3.2336,-3.2362,-3.2388,-3.2365,-3.2384,-3.2406,-3.2441,-3.2455,-3.248,-3.2518,-3.2548,-3.255,-3.2578,-3.2601,-3.2592,-3.2609,-3.2608,-3.261,-3.2514,-3.2501,-3.2616,-3.2616,-3.2616,-3.2616,-3.2616,-3.2616,-3.2365,-3.2417,-3.2414,-3.2471,-3.2478,-3.2516,-3.2529,-3.2545,-3.2556,-3.2601,-3.2625,-3.2627,-3.2636,-3.2664,-3.269,-3.269,-3.2701,-3.2722,-3.2718,-3.2629,-3.2616,-3.2604,-3.2592,-3.2725,-3.2725,-3.2812,-3.2812,-3.2813]}]]